Regional Weather Roundup
Issued by NWS

Home | Current Version | Previous Version | Text Only | Print | Product List | Glossary Off
Versions: 1 2 3 4 5 6 7 8 9 10 11 12 13 14 15 16 17 18 19 20 21 22 23 24 25 26 27 28 29 30 31 32 33 34 35 36 37 38 39 40 41 42 43 44 45 46 47 48 49 50

749
ASUS44 KMEG 300800
RWRTN
TENNESSEE HOURLY STATE WEATHER ROUNDUP
NATIONAL WEATHER SERVICE MEMPHIS TN
300 AM CDT SAT JUL 30 2016

TNZ002-004-019-021-049-052-054-088>092-300900-
WEST TENNESSEE

CITY           SKY/WX    TMP DP  RH WIND       PRES   REMARKS
MEMPHIS INTL   CLOUDY    73  70  90 CALM      29.96F FOG
NWS MEMPHIS      N/A     71 N/A N/A MISG        N/A
JACKSON        MOCLDY    72  71  97 W3        29.96S
DYERSBURG      MOCLDY   N/A N/A N/A MISG        N/A
UNION CITY     MOCLDY    70  70 100 CALM      29.95R
PARIS          CLOUDY    70  70 100 CALM      29.97R
LEXINGTON      CLEAR     70  70 100 CALM      29.96R
$$

TNZ008-025-027-028-033-062-065-066-300900-
NORTH MIDDLE TENNESSEE

CITY           SKY/WX    TMP DP  RH WIND       PRES   REMARKS
NASHVILLE      PTCLDY    73  69  87 W3        29.97R
CLARKSVILLE    CLOUDY    72  70  93 W5        29.96R
COOKEVILLE     MOCLDY    72  72 100 CALM      29.97R
CROSSVILLE     CLOUDY    71  69  93 CALM      30.01F
$$

TNZ061-075-076-078-094-096-097-300900-
SOUTH MIDDLE TENNESSEE

CITY           SKY/WX    TMP DP  RH WIND       PRES   REMARKS
TULLAHOMA      CLEAR     70  66  88 CALM      29.99S
WINCHESTER     CLEAR     72  72 100 CALM      29.97S
MCMINNVILLE    CLEAR     72  72 100 CALM      29.98R
COLUMBIA       CLEAR    N/A N/A N/A CALM      29.96R
SHELBYVILLE    CLEAR     72  72 100 CALM      29.98R
$$

TNZ017-018-042-046-047-300900-
NORTHEAST TENNESSEE

CITY           SKY/WX    TMP DP  RH WIND       PRES   REMARKS
TRI CITIES     FOG       69  68  96 CALM      30.01F VSB 3/4
$$

TNZ012-013-036-069-073-074-300900-
CENTRAL EAST TENNESSEE

CITY           SKY/WX    TMP DP  RH WIND       PRES   REMARKS
KNOXVILLE      MOCLDY    72  70  93 NW6       29.97S
OAK RIDGE      CLOUDY    75  71  87 S3        29.98F
GATLINBURG     PTCLDY    68  68 100 CALM      29.97S
$$

TNZ083-085-099-300900-
SOUTHEAST TENNESSEE

CITY           SKY/WX    TMP DP  RH WIND       PRES   REMARKS
CHATTANOOGA    CLEAR     75  69  81 CALM      29.96R
$$

SKY/WX REPORTED AS FAIR MEANS FEW OR NO CLOUDS BELOW
12 THOUSAND FEET.





USA.gov is the U.S. government's official web portal to all federal, state and local government web resources and services.